, LA

(GMT )
East Cameron 278

Weather History for KEHC - February, 2014

Change the Weather History Date:

Friday, February 7, 2014

  Actual Average Record
Temperature  
Mean Temperature 52 °F -  
Max Temperature 57 °F - - ()
Min Temperature 46 °F - - ()
Degree Days  
Heating Degree Days 14    
Growing Degree Days 2 (Base 50)    
Moisture  
Dew Point 47 °F    
Average Humidity 83    
Maximum Humidity 88    
Minimum Humidity 76    
Precipitation  
Precipitation 0.00 in - - ()
Sea Level Pressure  
Sea Level Pressure 30.20 in    
Wind  
Wind Speed 24 mph (ENE)    
Max Wind Speed 31 mph    
Max Gust Speed 34 mph    
Visibility 6 miles    
Events      
T = Trace of Precipitation, MM = Missing Value Source: NWS Daily Summary

Daily Weather History Graph

Daily Weather History Graph

Search for Another Location

Airport or City:

Trip Planner

Search our weather history database for the weather conditions in past years. The results will help you decide how hot, cold, wet, or windy it might be!

Date:

Astronomy

Feb. 07, 2014 Rise Set
Actual Time 6:55 AM CST 5:56 PM CST
Civil Twilight 6:31 AM CST 6:20 PM CST
Nautical Twilight 6:03 AM CST 6:48 PM CST
Astronomical Twilight 5:35 AM CST 7:16 PM CST
Moon 12:12 PM CST (2/7) 1:08 AM CST (2/7)
Length of Visible Light 11h 49m
Length of Day
11h 00m
First Quarter, 59% of the Moon is Illuminated
Feb 7
First Quarter
Feb 14
Full
Feb 22
Last Quarter
Mar 1
New
Mar 8
First Quarter

Hourly Weather History & Observations

Time (CST) Temp. Windchill Dew Point Humidity Pressure Visibility Wind Dir Wind Speed Gust Speed Precip Events Conditions
12:15 AM 46.4 °F 38.1 °F 39.2 °F 76% 30.27 in 10.0 mi ENE 24.2 mph - N/A   Unknown
12:35 AM 46.4 °F 38.3 °F 41.0 °F 81% 30.27 in 10.0 mi ENE 23.0 mph - N/A   Unknown
12:55 AM 48.2 °F - 41.0 °F 76% 30.27 in 10.0 mi NE 25.3 mph - N/A   Unknown
1:15 AM 46.4 °F 38.5 °F 39.2 °F 76% 30.28 in 10.0 mi NE 21.9 mph - N/A   Unknown
1:35 AM 46.4 °F 38.1 °F 39.2 °F 76% 30.27 in 10.0 mi NE 24.2 mph - N/A   Unknown
1:55 AM 46.4 °F 38.3 °F 39.2 °F 76% 30.27 in 10.0 mi NE 23.0 mph - N/A   Unknown
2:15 AM 46.4 °F 38.3 °F 41.0 °F 81% 30.26 in 10.0 mi NE 23.0 mph - N/A   Unknown
2:35 AM 46.4 °F 38.3 °F 39.2 °F 76% 30.25 in 10.0 mi NE 23.0 mph - N/A   Unknown
2:55 AM 46.4 °F 38.7 °F 39.2 °F 76% 30.25 in 10.0 mi ENE 20.7 mph 27.6 mph N/A   Unknown
3:15 AM 46.4 °F 38.3 °F 41.0 °F 81% 30.25 in 10.0 mi ENE 23.0 mph - N/A   Unknown
3:35 AM 46.4 °F 38.7 °F 39.2 °F 76% 30.25 in 9.0 mi ENE 20.7 mph - N/A   Unknown
3:55 AM 46.4 °F 38.5 °F 41.0 °F 81% 30.24 in 9.0 mi NE 21.9 mph 28.8 mph N/A   Unknown
4:15 AM 46.4 °F 38.5 °F 41.0 °F 81% 30.23 in 7.0 mi ENE 21.9 mph 29.9 mph N/A   Unknown
4:35 AM 46.4 °F 38.1 °F 41.0 °F 81% 30.23 in 7.0 mi ENE 24.2 mph - N/A   Unknown
4:55 AM 46.4 °F 37.7 °F 41.0 °F 81% 30.22 in 7.0 mi ENE 26.5 mph - N/A   Unknown
5:15 AM 46.4 °F 37.5 °F 41.0 °F 81% 30.20 in 8.0 mi ENE 27.6 mph - N/A   Unknown
5:35 AM 48.2 °F - 42.8 °F 82% 30.21 in 8.0 mi ENE 28.8 mph - N/A   Unknown
5:55 AM 48.2 °F - 42.8 °F 82% 30.21 in 8.0 mi ENE 29.9 mph - N/A   Unknown
6:15 AM 48.2 °F - 42.8 °F 82% 30.20 in 9.0 mi ENE 29.9 mph - N/A   Unknown
6:35 AM 48.2 °F - 42.8 °F 82% 30.21 in 9.0 mi ENE 28.8 mph - N/A   Unknown
6:55 AM 48.2 °F - 42.8 °F 82% 30.21 in 8.0 mi ENE 31.1 mph - N/A   Unknown
7:15 AM 48.2 °F - 42.8 °F 82% 30.21 in 6.0 mi ENE 28.8 mph - N/A   Haze
7:35 AM 48.2 °F - 44.6 °F 87% 30.22 in - ENE 28.8 mph - N/A   Unknown
7:55 AM 48.2 °F - 44.6 °F 87% 30.22 in 6.0 mi East 28.8 mph - N/A   Haze
8:15 AM 50.0 °F - 44.6 °F 82% 30.20 in 6.0 mi East 28.8 mph - N/A   Haze
8:35 AM 50.0 °F - 44.6 °F 82% 30.21 in 6.0 mi East 28.8 mph - N/A   Haze
8:55 AM 50.0 °F - 46.4 °F 87% 30.22 in 6.0 mi East 28.8 mph - N/A   Haze
9:15 AM 50.0 °F - 46.4 °F 87% 30.23 in 6.0 mi East 24.2 mph 34.5 mph N/A   Haze
9:35 AM 51.8 °F - 46.4 °F 82% 30.23 in 6.0 mi East 25.3 mph - N/A   Haze
9:55 AM 51.8 °F - 46.4 °F 82% 30.24 in 7.0 mi East 23.0 mph 28.8 mph N/A   Unknown
10:15 AM 51.8 °F - 46.4 °F 82% 30.24 in 7.0 mi East 25.3 mph 31.1 mph N/A   Unknown
10:35 AM 51.8 °F - 48.2 °F 88% 30.23 in 7.0 mi East 26.5 mph - N/A   Unknown
10:55 AM 53.6 °F - 48.2 °F 82% 30.23 in 6.0 mi East 23.0 mph - N/A   Haze
11:15 AM 53.6 °F - 48.2 °F 82% 30.21 in 7.0 mi East 25.3 mph - N/A   Unknown
11:35 AM 53.6 °F - 48.2 °F 82% 30.21 in 7.0 mi East 24.2 mph - N/A   Unknown
11:55 AM 53.6 °F - 48.2 °F 82% 30.22 in 8.0 mi East 23.0 mph - N/A   Unknown
12:15 PM 53.6 °F - 48.2 °F 82% 30.20 in 7.0 mi East 24.2 mph - N/A   Unknown
12:35 PM 53.6 °F - 48.2 °F 82% 30.18 in 7.0 mi East 24.2 mph - N/A   Unknown
12:55 PM 53.6 °F - 48.2 °F 82% 30.18 in 7.0 mi East 20.7 mph 26.5 mph N/A   Unknown
1:15 PM 53.6 °F - 48.2 °F 82% 30.18 in 6.0 mi ENE 19.6 mph - N/A   Haze
1:35 PM 53.6 °F - 48.2 °F 82% 30.18 in 6.0 mi ENE 19.6 mph - N/A   Haze
1:55 PM 53.6 °F - 48.2 °F 82% 30.19 in 6.0 mi ENE 16.1 mph - N/A   Haze
2:15 PM 55.4 °F - 50.0 °F 82% 30.18 in 6.0 mi ENE 17.3 mph - N/A   Haze
2:35 PM 55.4 °F - 50.0 °F 82% 30.17 in 6.0 mi ENE 19.6 mph - N/A   Haze
2:55 PM 55.4 °F - 50.0 °F 82% 30.17 in 6.0 mi ENE 20.7 mph - N/A   Haze
3:15 PM 55.4 °F - 50.0 °F 82% 30.16 in 5.0 mi ENE 20.7 mph - N/A   Haze
3:35 PM 55.4 °F - 50.0 °F 82% 30.16 in 5.0 mi ENE 21.9 mph - N/A   Haze
3:55 PM 55.4 °F - 50.0 °F 82% 30.15 in 4.0 mi ENE 23.0 mph 29.9 mph N/A   Haze
4:15 PM 55.4 °F - 50.0 °F 82% 30.15 in 4.0 mi ENE 23.0 mph - N/A   Haze
4:35 PM 55.4 °F - 50.0 °F 82% 30.14 in 4.0 mi ENE 25.3 mph - N/A   Haze
4:55 PM 55.4 °F - 50.0 °F 82% 30.14 in 4.0 mi ENE 27.6 mph - N/A   Haze
5:15 PM 55.4 °F - 50.0 °F 82% 30.14 in 4.0 mi ENE 24.2 mph - N/A   Haze
5:35 PM 55.4 °F - 50.0 °F 82% 30.13 in 5.0 mi East 26.5 mph - N/A   Haze
5:55 PM 55.4 °F - 50.0 °F 82% 30.16 in 5.0 mi ENE 20.7 mph - N/A   Haze
6:15 PM 55.4 °F - 51.8 °F 88% 30.15 in 6.0 mi ENE 23.0 mph - N/A   Haze
6:35 PM 55.4 °F - 51.8 °F 88% 30.15 in 5.0 mi ENE 25.3 mph - N/A   Haze
6:55 PM 55.4 °F - 51.8 °F 88% 30.14 in 5.0 mi East 26.5 mph - N/A   Mist
7:15 PM 55.4 °F - 51.8 °F 88% 30.15 in 5.0 mi ENE 26.5 mph - N/A   Mist
7:35 PM 55.4 °F - 51.8 °F 88% 30.14 in 6.0 mi ENE 27.6 mph - N/A   Mist
7:55 PM 55.4 °F - 51.8 °F 88% 30.16 in 5.0 mi ENE 23.0 mph - N/A   Mist
8:15 PM 55.4 °F - 51.8 °F 88% 30.16 in 5.0 mi ENE 21.9 mph - N/A   Mist
8:35 PM 55.4 °F - 51.8 °F 88% 30.17 in 5.0 mi ENE 19.6 mph - N/A   Mist
8:55 PM 55.4 °F - 51.8 °F 88% 30.15 in 5.0 mi ENE 21.9 mph - N/A   Mist
9:15 PM 57.2 °F - 53.6 °F 88% 30.17 in 5.0 mi ENE 19.6 mph - N/A   Mist
9:35 PM 55.4 °F - 51.8 °F 88% 30.17 in 4.0 mi NE 20.7 mph - N/A   Mist
9:55 PM 55.4 °F - 51.8 °F 88% 30.18 in 5.0 mi NE 20.7 mph - N/A   Mist
10:15 PM 55.4 °F - 51.8 °F 88% 30.17 in 4.0 mi ENE 18.4 mph - N/A   Mist
10:35 PM 55.4 °F - 51.8 °F 88% 30.17 in 2.5 mi ENE 15.0 mph - N/A   Mist
10:55 PM 55.4 °F - 51.8 °F 88% 30.17 in 3.0 mi ENE 18.4 mph - N/A   Mist
11:15 PM 55.4 °F - 51.8 °F 88% 30.18 in 4.0 mi NE 18.4 mph - N/A   Mist
11:35 PM 55.4 °F - 51.8 °F 88% 30.16 in 4.0 mi ENE 19.6 mph - N/A   Mist
11:55 PM 55.4 °F - 51.8 °F 88% 30.14 in 5.0 mi ENE 21.9 mph - N/A   Mist